Location: Pitton
(51.0667°N, 1.7000°W)
Time: 19:02:25
(UTC+00:00)

SL-16 R/B - Pass Details

Date: 17 September 2019
Orbit: 840 x 849 km, 71.0° (Epoch: 20 October)

Event Time Altitude Azimuth Distance (km) Brightness Sun altitude
Rises 22:08:30 0° 322° (NW) 3,416 6.5 -31.7°
Reaches altitude 10° 22:11:21 10° 310° (NW) 2,478 5.4 -31.9°
Maximum altitude 22:15:50 25° 257° (WSW) 1,667 3.8 -32.3°
Enters shadow 22:15:53 25° 257° (WSW) 1,667 3.8 -32.3°
